Memphis, TN

2:12 PM CDT on June 28, 2017 (GMT -0500)
Memphis International

Weather History for KMEM - September, 2012

Change the Weather History Date:

Friday, September 14, 2012

  Actual Average Record
Temperature  
Mean Temperature 78 °F 76 °F  
Max Temperature 83 °F 86 °F 100 °F (1980)
Min Temperature 72 °F 66 °F 46 °F (1940)
Degree Days  
Heating Degree Days 0 0  
Month to date heating degree days 0 0  
Since 1 July heating degree days 0 0  
Cooling Degree Days 13 11  
Month to date cooling degree days 210 183  
Year to date cooling degree days 2447 2018  
Growing Degree Days 28 (Base 50)    
Moisture  
Dew Point 65 °F    
Average Humidity 69    
Maximum Humidity 79    
Minimum Humidity 58    
Precipitation  
Precipitation 0.01 in 0.11 in 4.66 in (1901)
Month to date precipitation 4.50 1.34  
Year to date precipitation 24.10 36.72  
Snow  
Snow 0.00 in 0.00 in - ()
Month to date snowfall 0.0 0.0  
Since 1 July snowfall 0.0 0.0  
Since 1 September snowfall 0.0 0.0  
Snow Depth 0.00 in    
Sea Level Pressure  
Sea Level Pressure 30.18 in    
Wind  
Wind Speed 7 mph (East)    
Max Wind Speed 13 mph    
Max Gust Speed 18 mph    
Visibility 10 miles    
Events Rain    
T = Trace of Precipitation, MM = Missing Value Source: NWS Daily Summary

Daily Weather History Graph

Daily Weather History Graph

Search for Another Location

Airport or City:

Trip Planner

Search our weather history database for the weather conditions in past years. The results will help you decide how hot, cold, wet, or windy it might be!

Date:

Astronomy

Sep. 14, 2012 Rise Set
Actual Time 6:42 AM CDT 7:07 PM CDT
Civil Twilight 6:17 AM CDT 7:32 PM CDT
Nautical Twilight 5:47 AM CDT 8:02 PM CDT
Astronomical Twilight 5:16 AM CDT 8:32 PM CDT
Moon 5:08 AM CDT (9/14) 6:03 PM CDT (9/14)
Length of Visible Light 13h 15m
Length of Day
12h 25m
Waning Crescent, 2% of the Moon is Illuminated
Sep 14
Waning Crescent
Sep 15
New
Sep 22
First Quarter
Sep 29
Full
Oct 8
Last Quarter

Hourly Weather History & Observations

Time (CDT) Temp. Heat Index Dew Point Humidity Pressure Visibility Wind Dir Wind Speed Gust Speed Precip Events Conditions
12:54 AM 77.0 °F - 64.0 °F 64% 30.19 in 10.0 mi Calm Calm - N/A   Overcast
1:54 AM 75.0 °F - 64.0 °F 69% 30.19 in 10.0 mi Calm Calm - 0.00 in Rain Light Rain
2:54 AM 73.9 °F - 64.9 °F 73% 30.17 in 10.0 mi South 8.1 mph - 0.01 in   Overcast
3:54 AM 73.9 °F - 64.0 °F 71% 30.16 in 10.0 mi South 8.1 mph - N/A   Overcast
4:54 AM 73.9 °F - 64.0 °F 71% 30.16 in 10.0 mi SE 6.9 mph - N/A   Overcast
5:54 AM 73.0 °F - 64.0 °F 73% 30.17 in 10.0 mi SSE 5.8 mph - N/A   Overcast
6:54 AM 73.0 °F - 64.0 °F 73% 30.19 in 10.0 mi SSE 3.5 mph - N/A   Mostly Cloudy
7:54 AM 73.9 °F - 63.0 °F 68% 30.20 in 10.0 mi SSE 3.5 mph - N/A   Overcast
8:54 AM 75.0 °F - 62.1 °F 64% 30.20 in 10.0 mi SE 5.8 mph - N/A   Overcast
9:54 AM 77.0 °F - 63.0 °F 62% 30.21 in 10.0 mi SSE 6.9 mph - N/A   Mostly Cloudy
10:54 AM 81.0 °F 82.5 °F 64.0 °F 56% 30.22 in 10.0 mi South 5.8 mph - N/A   Overcast
11:54 AM 80.1 °F 81.7 °F 64.0 °F 58% 30.22 in 10.0 mi ENE 6.9 mph - N/A   Overcast
12:54 PM 80.1 °F 81.9 °F 64.9 °F 60% 30.21 in 10.0 mi NE 6.9 mph - N/A   Overcast
1:54 PM 81.0 °F 82.7 °F 64.9 °F 58% 30.19 in 10.0 mi NE 6.9 mph - N/A   Overcast
2:54 PM 81.0 °F 83.0 °F 66.0 °F 60% 30.18 in 10.0 mi NE 8.1 mph - N/A   Overcast
3:54 PM 81.0 °F 82.7 °F 64.9 °F 58% 30.16 in 10.0 mi NE 9.2 mph - N/A   Overcast
4:54 PM 81.0 °F 82.5 °F 64.0 °F 56% 30.16 in 10.0 mi NE 8.1 mph - N/A   Overcast
5:54 PM 81.0 °F 83.0 °F 66.0 °F 60% 30.16 in 10.0 mi NNE 6.9 mph - N/A   Overcast
6:54 PM 80.1 °F 81.9 °F 64.9 °F 60% 30.16 in 10.0 mi NNE 9.2 mph - N/A   Overcast
7:54 PM 78.1 °F - 66.9 °F 68% 30.17 in 10.0 mi NE 6.9 mph - N/A   Overcast
8:54 PM 77.0 °F - 66.0 °F 69% 30.19 in 10.0 mi NE 9.2 mph - N/A   Overcast
9:54 PM 75.9 °F - 64.9 °F 69% 30.20 in 10.0 mi NE 11.5 mph - N/A   Overcast
10:54 PM 75.0 °F - 64.9 °F 71% 30.20 in 10.0 mi ENE 9.2 mph - N/A   Overcast
11:54 PM 73.9 °F - 66.0 °F 76% 30.20 in 10.0 mi NE 6.9 mph - N/A   Overcast